User: anonymous
Location: Hancock Field Station
(44.9202°N, 120.4259°W)
Time: 17:29:04
(UTC-07:00)
Language:

Cosmos 1707 - Orbit

View from above orbital plane
View from above orbital plane
View from above satellite
View from above satellite

Ground track
Ground track

The orbit data is extracted from the following two-line orbital elements,

1 16326U 85113A   14292.68602422  .00006682  00000-0  42017-3 0   400
2 16326 082.5122 080.5618 0011623 064.2314 296.0113 15.09018955570558
Epoch (UTC): 19 October 2014 16:27:52
Eccentricity: 0.0011623
inclination: 82.5122°
perigee height: 531 km
apogee height: 547 km
right ascension of ascending node: 80.5618°
argument of perigee: 64.2314°
revolutions per day: 15.09018955
mean anomaly at epoch: 296.0113°
orbit number at epoch: 57055

The dashed part of the orbit path shows where the satellite is in the earth's shadow,  

DLR